Location: Miss�
(46.9484°N, 0.1922°W)
Time: 00:21:59
(UTC+00:00)

Meteor 2-4 Rocket - Pass Details

Date: 02 March 2021
Orbit: 799 x 908 km, 81.2° (Epoch: 14 April)

Event Time Altitude Azimuth Distance (km) Brightness Sun altitude
Rises 18:56:30 0° 351° (N) 3,481 7.1 -12.5°
Reaches altitude 10° 18:58:59 10° 355° (N) 2,553 6.3 -12.9°
Maximum altitude 19:04:44 59° 75° (ENE) 1,030 3.8 -13.9°
Drops below altitude 10° 19:10:33 10° 155° (SSE) 2,581 5.9 -14.9°
Sets 19:13:04 0° 159° (SSE) 3,522 6.7 -15.3°
